Flag for U.S.A. Weather past 2 weeks in Baltimore, Maryland, U.S.A.

62 °F

Partly cloudy.

Feels Like: 62 °F
Forecast: 45 / 63 °F
Wind: 5 mph from Northwest

Location: Baltimore-Washington International Airport

Current Time: Oct 10, 2015 at 2:17:41 AM

Latest Report: Oct 10, 2015 at 12:54 AM

Visibility: 10 mi

Pressure: 29.98 "Hg

Humidity: 86%

Dew point: 58 °F

Location of BaltimoreLocation

Historic Weather in Baltimore — Graph


Baltimore temperature yesterday

Maximum temperature yesterday: 78 °F (at 4:54 PM)
Minimum temperature yesterday: 61 °F (at 5:54 AM)
Average temperature yesterday: 67 °F

Past Weeks' High & Low Weather Summary

High79 °F (Sep 28, 2:54 PM)100% (Sep 29, 11:01 PM)30.41 "Hg (Sep 29, 11:01 PM)
Low45 °F (Oct 6, 5:54 AM)39% (Oct 6, 12:54 PM)29.67 "Hg (Sep 30, 4:54 AM)
Average63 °F80%30.10 "Hg
* Reported Sep 25 12:54 AM — Oct 10 12:54 AM, Baltimore, Weather by CustomWeather, © 2015

Note: Actual official high and low records may vary slightly from our data, if they occured in-between our weather recording intervals... More about our weather records


Baltimore weather history for previous 24 hours

Time TempWeatherWind HumidityBarometerVisibility
12:54 AM
Sat, Oct 10
62 °FPartly cloudy.5 mph86%29.98 "Hg10 mi
11:54 PM
Fri, Oct 9
64 °FMostly cloudy.3 mph90%29.96 "Hg10 mi
10:54 PM64 °FMostly cloudy.8 mph94%29.94 "Hg10 mi
9:54 PM64 °FMostly cloudy.6 mph97%29.92 "Hg10 mi
8:54 PM64 °FPartly cloudy.3 mph97%29.90 "Hg10 mi
7:54 PM65 °FPartly cloudy.No wind97%29.89 "Hg10 mi
6:54 PM66 °FThunderstorms. More clouds than sun.5 mph90%29.88 "Hg7 mi
5:54 PM77 °FPartly sunny.8 mph64%29.82 "Hg10 mi
4:54 PM78 °FCloudy.8 mph62%29.81 "Hg10 mi
3:54 PM77 °FCloudy.8 mph64%29.82 "Hg10 mi
2:54 PM77 °FBroken clouds.10 mph62%29.83 "Hg10 mi
1:54 PM76 °FPartly sunny.7 mph67%29.86 "Hg10 mi
12:54 PM76 °FBroken clouds.10 mph64%29.90 "Hg10 mi
11:54 AM74 °FScattered clouds.8 mph69%29.93 "Hg10 mi
10:54 AM72 °FScattered clouds.8 mph73%29.95 "Hg10 mi
9:54 AM67 °FScattered clouds.7 mph85%29.96 "Hg10 mi
8:54 AM62 °FBroken clouds.No wind93%29.97 "Hg9 mi
7:54 AM61 °FLight rain. Partly cloudy.3 mph93%29.98 "Hg9 mi
6:54 AM61 °FPassing clouds.3 mph90%29.99 "Hg10 mi
5:54 AM61 °FPassing clouds.3 mph90%29.98 "Hg10 mi
4:54 AM62 °FPassing clouds.No wind86%29.99 "Hg10 mi
3:54 AM62 °FPassing clouds.No wind86%30.01 "Hg10 mi
2:54 AM63 °FPassing clouds.No wind84%30.03 "Hg10 mi
Weather by CustomWeather, © 2015

See weather overviewHow to use our weather pages